Location: Unspecified
(47.9110°N, 14.3980°E)
Time: 06:23:05
(UTC+00:00)

USA 238 DEB - Pass Details

Date: 06 August 2020
Orbit: 1006 x 1206 km, 63.4° (Epoch: 19 September)

Event Time Altitude Azimuth Distance (km) Brightness Sun altitude
Exits shadow 20:14:36 19° 157° (SSE) 2,230 4.8 -14.9°
Maximum altitude 20:18:05 30° 113° (ESE) 1,779 4.4 -15.3°
Drops below altitude 10° 20:23:48 10° 56° (NE) 2,900 5.9 -16.0°
Sets 20:26:50 0° 46° (NE) 3,892 6.7 -16.3°
